RH
85 86 86 86 87 88 88 88 88 88 88 87 89 90 91 92 89 46 18 17 29 78 71 20 16 20 21 34 23 30 64 64 40 33 35 25 30 27 34 27 28 28 33 33 31
84 86 86 86 88 88 88 88 88 88 87 87 89 88 90 92 63 25 24 52 60 83 17 15 15 15 21 30 29 49 43 26 20 24 28 27 30 34 29 25 31 31 30 28 30
85 86 87 87 88 88 88 88 88 88 86 88 88 88 91 90 49 11 39 57 68 60 15 14 14 15 21 25 30 35 30 21 35 31 20 25 31 30 27 33 33 36 32 30 32
85 86 87 88 88 88 88 88 87 87 87 86 87 87 90 69 27 14 61 69 69 25 15 14 15 20 26 27 25 32 25 20 36 35 31 25 23 24 26 27 27 28 28 30 32
85 86 87 87 88 88 88 88 90 88 88 87 87 86 76 51 16 23 57 58 20 14 14 15 16 18 28 29 28 31 30 25 28 30 21 20 25 25 25 23 24 25 26 30 30
84 86 87 87 87 88 89 90 91 91 88 87 87 85 69 27 10 17 15 14 10 13 14 14 14 18 27 30 36 33 29 31 43 25 23 24 31 24 25 22 23 25 28 30 27
84 84 86 86 87 89 91 92 91 89 88 86 85 60 37 22 11 12 9 11 11 11 14 12 11 20 23 44 26 33 37 34 32 29 28 27 35 35 24 22 25 26 28 30 30
84 84 85 86 90 92 92 91 91 88 85 86 82 58 39 9 11 9 8 8 10 11 11 10 11 27 30 30 34 37 46 69 37 34 33 38 52 38 24 25 29 27 28 29 36
85 87 89 90 91 91 92 91 88 84 80 78 84 72 26 19 10 8 7 8 9 9 10 8 13 20 25 31 45 43 61 54 46 38 40 66 72 33 29 29 35 31 31 31 40
89 88 88 88 89 90 91 90 75 75 69 45 30 34 23 12 8 7 7 7 8 11 12 13 25 33 33 46 63 54 62 56 59 35 67 63 65 35 42 31 35 40 38 36 40
88 89 89 89 89 90 90 46 36 40 31 21 20 16 10 11 6 6 7 7 8 12 18 16 28 33 34 33 33 34 47 50 50 37 43 40 59 58 61 59 36 46 41 42 47
89 90 90 88 90 86 91 42 19 17 24 16 12 10 8 7 8 7 7 9 10 13 14 18 25 22 21 19 31 28 39 42 30 32 26 36 54 58 69 61 41 35 40 43 54
89 90 91 90 85 75 36 25 13 14 23 14 11 10 7 7 8 8 7 9 10 12 12 19 22 20 18 24 28 28 32 26 26 23 32 30 48 47 44 37 40 34 33 36 42
90 91 91 94 56 40 32 16 12 13 31 16 13 9 5 6 8 6 6 7 8 11 12 16 18 17 17 18 25 50 25 21 22 31 44 31 63 68 60 49 38 36 33 33 38
90 92 92 94 66 49 24 18 13 17 40 8 9 5 5 7 9 8 5 7 9 11 14 15 18 19 19 17 22 29 30 24 24 30 40 55 77 81 54 54 46 37 31 32 36
91 91 91 54 58 48 34 27 18 32 31 10 7 6 6 6 6 7 7 7 8 10 11 13 11 16 17 11 11 13 16 31 40 38 45 49 61 78 72 49 47 35 30 28 33
93 91 90 56 42 23 28 26 37 33 10 8 9 6 7 8 7 8 10 11 13 25 20 15 13 13 13 17 13 18 32 43 59 75 58 51 46 50 43 40 38 37 29 30 32
94 90 72 53 46 40 34 38 45 14 12 6 8 7 8 7 8 9 11 12 10 12 18 21 21 14 14 15 17 19 34 40 56 59 47 45 51 41 29 28 34 22 25 28 34
91 46 32 30 39 36 43 41 30 19 7 8 7 9 9 6 6 8 11 12 10 11 18 21 19 10 11 12 15 20 26 17 28 40 53 42 33 31 30 35 40 25 25 28 33
79 56 38 22 27 32 43 41 19 11 9 9 10 8 10 8 7 10 13 10 9 8 9 12 18 13 11 11 14 28 17 20 25 53 60 47 48 42 40 50 54 29 28 33 34
70 48 26 20 22 38 39 26 14 10 10 11 12 12 9 8 8 9 10 8 7 7 8 11 15 14 12 18 17 14 20 27 26 50 61 58 71 39 31 35 34 27 27 32 37
44 48 23 18 38 37 30 22 24 10 8 9 11 12 12 12 9 10 10 9 6 7 10 10 12 22 15 9 8 11 12 15 28 33 38 36 43 21 18 19 18 25 27 31 37
58 37 21 21 42 31 23 15 13 11 10 11 12 10 9 14 17 10 9 7 6 9 19 25 18 21 17 16 12 11 14 39 11 18 24 25 33 19 21 17 22 26 32 37 39
60 47 34 29 29 27 22 17 14 10 9 8 11 9 10 13 14 15 10 7 7 10 41 20 13 17 19 18 13 15 10 11 16 17 19 24 26 22 22 24 18 36 49 56 39
56 41 41 51 35 30 22 20 18 12 9 11 14 11 12 16 18 17 11 10 9 34 13 10 15 17 14 10 8 12 10 11 12 13 24 16 20 21 29 27 20 18 37 40 40
62 51 46 51 42 44 36 22 19 16 13 12 14 10 11 20 19 20 14 19 17 16 29 12 18 45 18 12 10 12 10 8 10 10 13 12 12 15 25 23 25 20 28 40 40
53 47 54 59 46 41 27 19 17 14 12 10 8 12 14 14 11 11 11 14 14 18 16 17 17 23 25 18 15 18 13 11 13 12 11 17 29 20 21 22 25 26 23 33 38
Wind_Speed
18 19 19 20 21 20 20 19 19 19 20 21 21 20 18 19 22 4 6 7 4 8 2 7 9 11 9 22 5 2 7 6 5 14 4 11 8 4 6 12 18 10 15 12 9
19 20 20 20 21 20 20 20 20 20 20 21 20 19 17 17 5 9 12 7 6 8 3 7 13 11 7 14 6 5 3 10 13 12 8 11 13 8 5 8 16 18 17 13 8
20 20 20 21 21 21 21 21 21 21 21 20 18 17 16 14 5 9 16 12 8 8 4 8 11 7 8 2 4 5 5 10 19 18 2 13 14 10 8 15 19 21 16 12 8
19 20 20 21 22 22 22 21 22 21 20 19 17 15 14 4 2 3 6 11 8 4 3 7 8 2 3 5 3 3 16 7 15 18 7 11 14 11 10 12 19 18 15 12 9
19 20 21 21 22 23 22 21 21 20 20 17 14 11 5 3 10 4 7 7 4 2 4 7 12 3 14 11 15 9 11 13 7 17 3 10 12 13 13 18 20 18 15 13 11
21 21 22 22 22 23 22 22 22 20 18 16 11 6 2 5 7 10 8 8 7 5 6 9 7 12 14 13 8 11 11 11 14 6 5 5 4 9 13 16 18 17 13 10 11
21 22 23 23 23 24 24 24 22 21 16 12 6 4 5 16 6 11 10 8 6 7 9 11 14 8 6 8 8 6 8 10 5 4 3 2 5 6 15 16 16 14 11 8 6
22 22 24 24 23 24 24 25 24 20 13 10 3 5 9 7 14 9 9 8 8 8 11 15 10 14 8 6 4 4 6 6 9 13 8 14 5 2 13 15 13 13 14 11 6
19 22 22 23 23 23 25 28 24 15 8 2 4 3 10 1 7 6 8 10 9 9 10 14 5 10 10 2 2 6 3 14 19 7 12 11 23 10 10 12 8 10 13 12 8
20 22 23 24 24 23 26 27 9 7 5 7 9 4 8 10 6 9 7 9 10 8 7 8 7 4 4 4 5 5 7 6 16 24 15 18 20 6 10 10 11 8 8 12 11
21 22 25 26 26 20 15 5 1 1 6 10 8 7 2 11 7 8 9 6 7 6 7 10 5 8 20 15 8 10 15 18 21 19 17 12 21 13 19 20 13 10 10 11 10
22 23 25 29 29 23 4 4 6 5 8 14 19 16 21 5 4 4 7 8 7 8 8 7 5 9 18 8 6 10 17 18 16 21 9 16 15 13 17 10 5 16 14 12 12
22 23 25 30 34 5 7 12 5 8 4 8 14 9 10 2 6 11 7 8 8 9 9 10 13 19 14 11 10 8 11 6 6 5 3 7 6 7 10 8 6 1 19 14 19
21 22 23 31 6 10 7 7 7 7 3 8 11 9 6 5 7 10 12 10 7 13 12 9 8 10 17 12 20 6 20 15 11 6 2 4 3 6 11 24 16 13 17 18 18
20 20 19 8 8 6 9 16 9 3 2 12 11 6 9 10 2 10 12 7 13 14 7 16 10 11 11 6 24 15 13 14 15 7 4 3 8 11 12 17 19 17 11 20 19
20 20 18 5 4 13 16 17 8 1 8 7 9 10 8 11 10 6 8 8 8 10 13 11 6 4 9 3 4 6 5 10 7 9 5 5 8 8 8 14 9 11 16 19 19
21 23 11 6 6 9 14 6 1 5 5 10 8 11 11 9 8 10 9 8 7 3 7 11 10 13 3 3 5 3 2 7 8 6 6 6 4 9 18 21 22 18 5 17 20
21 28 8 10 8 9 4 3 5 11 10 9 11 11 10 10 10 10 9 7 11 9 5 6 8 8 6 7 7 4 2 6 7 4 2 4 4 8 15 11 11 9 7 16 17
24 5 7 8 12 6 2 4 8 8 4 4 16 11 11 9 8 7 9 9 10 10 7 2 7 7 8 6 10 5 3 6 11 7 6 4 6 2 4 11 23 5 10 10 18
7 5 8 10 12 5 3 7 9 10 17 14 9 11 10 10 10 8 10 10 10 11 10 10 6 8 14 7 5 5 2 7 5 6 3 5 5 8 1 14 29 13 10 10 14
3 5 5 12 10 3 6 8 7 17 18 8 8 3 10 10 11 9 10 9 14 13 11 7 3 12 6 3 3 5 2 3 8 7 7 4 8 10 14 22 20 14 13 15 15
5 4 3 8 4 4 9 7 6 20 22 11 6 7 8 5 10 10 8 9 12 12 6 9 1 3 7 6 8 4 6 3 6 6 5 7 3 10 16 16 20 13 15 16 17
4 6 7 5 5 8 10 17 20 20 20 5 6 6 13 10 6 8 8 5 7 6 2 3 1 4 11 9 2 5 3 2 3 3 3 4 4 5 2 8 9 10 13 7 15
4 5 5 6 7 13 12 14 16 18 20 15 6 7 11 11 9 7 7 5 11 6 7 7 2 5 8 7 3 5 7 6 5 2 5 1 5 4 2 11 7 16 22 22 16
4 6 6 5 7 12 14 14 17 18 8 6 9 12 9 8 8 3 7 9 8 3 4 4 2 6 10 8 7 0 5 5 6 6 4 7 6 6 5 10 10 13 18 18 18
4 5 6 12 12 15 11 18 18 20 9 7 8 16 11 7 7 6 8 7 6 4 3 2 3 3 8 8 8 6 9 9 3 4 4 3 6 9 10 8 6 7 14 14 18
6 7 6 8 9 11 10 15 17 15 10 14 12 10 8 11 8 9 7 10 12 11 7 4 4 1 6 7 6 5 7 7 2 3 3 2 5 1 5 5 6 6 5 11 17
Wind_Direction
351 346 344 341 338 337 335 334 333 331 329 324 324 323 325 325 312 182 243 233 184 164 209 283 279 269 255 29 312 112 94 189 200 90 158 99 88 11 288 130 145 153 138 146 151
349 344 341 337 335 334 332 332 330 328 325 321 321 321 322 330 292 258 241 178 159 164 283 294 311 355 109 159 257 91 353 88 97 128 119 123 131 182 123 134 122 128 125 143 133
345 342 339 336 334 331 330 329 328 326 322 319 318 317 316 319 288 240 195 185 189 171 268 298 299 349 65 4 337 23 12 86 55 354 79 136 147 159 140 117 124 129 136 147 140
346 341 336 334 332 329 327 326 324 324 319 316 315 313 314 270 203 12 25 118 166 220 258 295 280 259 113 200 170 325 358 35 124 196 259 153 119 93 122 132 129 130 145 143 167
344 340 335 332 329 326 326 318 315 317 314 313 312 314 307 236 254 150 138 120 170 182 224 265 281 106 81 24 327 50 356 3 72 180 98 91 101 111 107 118 124 138 154 163 178
343 338 334 331 328 324 316 314 312 312 311 307 308 308 261 259 198 152 184 159 220 200 263 251 265 96 80 37 51 314 297 53 323 63 14 77 87 126 125 128 136 149 164 179 185
340 337 333 329 325 317 316 312 310 310 307 300 292 248 262 244 334 161 188 211 181 246 261 269 272 102 101 174 264 300 332 357 224 232 322 271 47 117 142 141 147 163 160 181 189
337 333 330 327 320 317 314 310 306 302 296 283 215 244 252 236 250 195 182 225 228 222 252 274 301 107 92 91 51 9 23 4 328 321 337 353 282 207 147 149 163 169 160 173 158
335 330 325 321 319 318 313 308 300 288 255 196 188 226 270 210 200 255 189 203 222 243 256 271 313 93 119 138 53 7 310 18 334 337 336 43 301 276 170 155 180 169 168 171 160
326 325 323 321 320 321 315 298 286 308 203 204 258 291 256 240 193 228 232 202 208 227 257 258 60 78 357 97 181 164 93 101 280 284 171 203 244 232 19 167 182 172 158 147 149
325 324 322 322 319 324 336 345 33 278 247 216 198 230 199 226 167 210 195 223 254 228 224 251 106 134 236 240 173 162 147 169 238 258 202 212 113 84 292 295 187 172 165 157 154
325 324 323 322 317 318 266 263 14 295 296 244 254 264 265 231 165 200 181 177 219 235 226 274 170 228 207 235 151 223 194 211 227 244 128 109 129 185 195 262 258 178 171 160 154
324 325 326 324 316 295 251 265 305 302 273 266 218 244 228 7 233 198 205 202 217 238 236 216 178 201 211 212 136 237 244 277 229 101 41 146 63 183 226 314 265 200 173 169 166
322 325 331 333 343 335 286 345 342 325 302 256 182 236 208 196 254 246 181 179 230 231 238 234 190 216 263 198 150 62 264 253 53 78 82 24 243 321 352 324 315 311 185 179 165
319 322 327 315 303 296 307 328 313 342 278 187 177 185 186 192 279 236 173 197 224 236 181 250 183 205 247 165 152 219 228 89 63 44 114 13 71 299 333 293 289 287 254 179 165
314 318 333 320 233 249 286 285 298 306 242 143 153 184 171 214 260 185 149 201 241 257 275 258 222 162 217 93 267 96 98 49 30 47 9 154 133 239 228 242 275 275 268 179 164
312 308 302 283 243 336 328 316 215 232 251 148 164 166 188 198 240 167 169 193 217 238 294 300 286 169 114 171 261 172 168 57 329 23 241 190 81 233 222 233 234 262 206 153 157
314 306 247 208 226 252 272 324 246 244 257 164 155 174 202 183 231 183 171 190 234 244 252 228 305 233 178 165 194 333 70 158 181 180 263 122 221 251 227 226 284 149 129 135 149
311 289 264 226 208 242 285 224 215 230 271 188 160 168 201 207 184 231 179 195 217 219 223 286 260 335 292 203 151 205 244 239 91 42 91 279 298 319 230 10 340 168 128 145 147
317 280 253 230 154 184 216 252 250 308 324 322 142 152 183 213 196 198 180 208 225 209 213 261 311 245 254 164 164 138 201 18 356 156 201 330 356 264 128 156 219 231 151 131 131
248 277 255 168 157 190 223 242 298 280 289 334 0 294 189 189 207 220 207 227 200 237 200 228 198 290 9 119 125 7 359 226 115 134 154 144 270 245 230 192 197 206 150 142 140
293 275 213 146 175 214 238 252 281 287 296 289 342 319 290 244 187 205 199 216 207 201 219 202 74 296 257 161 135 190 234 218 130 257 206 161 213 251 246 146 193 170 151 147 149
283 282 272 198 220 233 250 251 259 269 277 278 279 287 311 303 202 162 226 26 134 85 31 21 42 343 330 347 167 179 213 299 354 65 282 98 223 275 357 45 33 137 135 107 143
279 280 232 226 228 258 251 244 245 261 264 268 301 277 295 303 316 184 166 78 76 103 58 52 349 169 212 234 263 158 200 201 152 69 279 346 225 318 37 114 96 101 121 152 223
246 260 350 297 229 235 257 278 278 249 227 291 303 286 264 286 309 244 130 109 97 109 62 93 270 299 294 293 325 308 223 187 180 212 146 243 151 219 175 152 171 165 174 176 179
290 346 332 289 279 280 252 251 264 275 216 216 238 275 262 272 233 292 130 137 151 114 139 264 252 292 298 317 335 349 341 335 282 338 228 126 295 178 173 163 172 174 127 166 174
10 329 299 293 292 281 241 242 254 263 203 231 225 257 264 267 279 272 283 157 156 144 172 203 177 198 276 309 313 333 274 268 193 314 310 19 335 33 145 87 68 83 117 164 190